Theta_e
304 296 294 294 296 299 301 301 300 300 300 299 299 297 295 295 296 299 300 302 303 297 297 297 298 298 298 300 301 302 303 302 302 302 303 304 304 305 306 306 307 308 308 313 313 313 312 311 310 311 311 311 310 310 309 308 309 309 310 311 311 313 312 313 313 315 316 316 317 317 317 316 318 318 318 318 319 318 318 317 317 315 313 313 312 311
301 295 296 298 300 301 301 302 301 300 300 298 296 295 294 295 293 298 299 302 303 298 296 298 296 297 298 300 301 302 302 301 302 302 303 304 305 306 306 307 308 308 311 312 310 310 309 310 312 312 311 309 308 308 308 308 308 309 309 309 310 312 311 311 312 313 315 316 316 316 316 316 316 316 315 315 317 317 317 316 316 315 312 312 311 309
295 293 298 300 302 303 302 300 300 297 297 297 295 295 294 294 297 299 300 302 301 296 294 297 295 295 297 299 300 301 301 302 303 304 304 304 305 306 306 307 307 307 308 308 307 308 308 309 308 309 309 309 309 309 308 309 309 308 309 310 310 310 311 310 310 311 312 314 316 315 315 315 315 317 317 316 316 316 315 315 315 314 312 312 310 308
293 297 299 302 302 301 300 300 298 297 297 295 294 293 292 297 294 292 299 298 298 296 294 296 294 295 298 300 300 302 302 303 305 305 305 306 305 306 306 306 306 305 306 306 305 306 307 306 306 306 306 306 306 305 306 306 306 307 307 308 309 309 310 310 310 309 311 312 314 315 315 315 315 314 315 315 314 314 313 313 313 312 311 311 309 308
297 301 303 302 301 300 298 298 297 296 294 297 296 295 294 295 296 296 296 298 299 299 299 296 294 295 299 298 300 303 304 303 304 304 305 307 308 308 308 309 308 306 305 304 305 305 305 304 304 304 304 305 304 304 304 305 305 305 306 307 308 308 309 309 309 309 309 310 311 312 313 311 310 311 309 309 309 310 310 309 309 309 310 310 308 308
297 302 302 300 299 299 298 295 297 297 293 295 298 297 297 298 296 297 297 295 293 293 295 294 288 290 297 298 299 300 301 301 303 303 305 306 306 306 306 306 306 306 306 305 304 303 304 304 304 304 304 303 303 303 303 304 304 304 305 306 306 307 308 308 309 309 308 307 307 307 307 305 305 304 305 305 305 306 306 306 309 309 308 308 308 307
299 301 300 299 299 298 297 296 298 298 294 293 295 300 299 298 297 296 295 294 289 287 295 297 287 285 295 295 298 300 301 300 303 303 304 305 305 305 304 303 303 304 304 304 303 303 303 303 303 303 303 303 303 303 303 304 303 304 304 305 305 306 306 308 307 308 307 306 306 306 306 306 305 304 306 307 308 307 308 308 307 307 307 307 306 306
299 298 297 298 297 297 296 294 297 298 294 292 298 299 298 297 295 295 295 293 291 296 296 296 293 287 288 295 300 301 299 300 300 303 303 302 302 302 302 302 303 303 304 303 302 302 302 302 301 301 301 301 302 302 303 303 303 303 303 303 304 304 305 306 307 306 306 305 305 305 305 304 304 304 304 306 306 307 307 307 306 306 306 305 305 305
298 296 296 295 295 295 295 298 302 300 296 295 296 298 296 295 295 295 293 292 292 291 287 292 295 288 288 295 298 299 296 298 299 300 301 301 301 301 301 301 302 302 302 301 300 300 300 300 300 300 300 300 301 301 301 301 302 302 302 303 302 302 303 303 305 304 305 305 304 304 304 304 305 305 304 305 305 304 305 304 304 304 304 304 304 304
298 298 299 299 297 294 299 299 300 300 295 300 297 297 297 296 295 295 292 291 291 288 285 290 293 287 288 296 295 298 297 297 298 299 300 301 299 299 300 301 301 301 300 300 299 299 299 299 299 300 300 300 300 300 301 301 301 301 301 301 301 300 301 301 302 303 304 304 304 303 303 303 303 304 304 304 303 304 304 302 302 302 302 302 301 302
298 296 298 297 296 299 297 295 298 299 299 297 299 296 295 296 294 294 293 291 288 284 287 293 293 291 285 294 294 295 296 299 298 299 300 300 299 299 299 299 299 298 298 298 298 297 298 299 298 299 298 298 298 299 299 300 300 300 300 300 299 299 300 300 300 301 302 303 303 303 303 302 302 303 303 302 302 302 303 302 302 301 301 301 301 301
297 296 295 298 301 299 299 298 295 297 298 297 294 293 292 291 293 290 289 291 284 284 291 294 293 294 284 291 296 298 298 298 299 297 297 297 297 297 297 297 297 296 296 296 295 295 296 296 296 296 296 296 296 297 297 298 299 299 299 299 298 298 299 299 300 300 300 301 302 302 302 302 302 302 302 301 301 302 302 302 301 302 301 300 301 300
295 295 298 299 297 298 297 294 296 295 296 294 293 292 287 286 288 284 287 282 284 284 288 291 294 289 288 293 297 299 299 299 299 298 297 297 296 296 295 295 295 295 295 294 293 294 294 294 294 294 294 295 295 295 296 296 298 298 298 298 297 297 298 298 299 299 299 299 299 300 300 300 301 301 301 301 301 301 301 301 301 301 300 300 299 299
295 300 298 298 296 298 298 292 293 291 293 293 290 289 286 283 282 280 283 286 286 289 289 290 293 287 292 295 299 299 300 298 298 297 297 296 295 294 294 294 294 294 293 293 293 292 292 292 293 293 293 293 294 294 294 295 296 297 297 297 297 297 298 298 298 298 298 298 298 298 298 299 299 299 300 300 300 300 300 301 300 300 300 300 299 299
287 288 295 295 294 299 297 297 297 296 295 293 298 294 289 287 283 278 282 279 282 285 287 290 286 285 286 292 299 299 298 297 296 296 296 295 294 294 294 293 293 292 292 293 292 291 291 291 292 292 292 293 293 293 294 294 294 295 295 296 296 296 297 297 297 297 297 298 298 298 298 298 298 298 298 298 299 299 299 299 300 300 300 299 299 300
291 290 298 298 296 298 296 300 299 297 294 297 297 297 290 288 293 284 287 286 285 285 285 286 285 291 292 298 299 300 296 295 295 295 294 293 293 293 292 291 291 291 291 292 291 291 291 291 291 291 292 292 292 292 293 293 293 294 294 294 295 295 296 296 296 296 296 296 297 297 297 297 297 297 298 298 299 298 299 299 299 299 299 299 299 300
292 289 294 297 295 295 296 298 297 298 286 292 292 287 291 297 293 288 288 289 287 285 282 290 288 292 297 298 298 298 294 293 294 292 292 292 292 292 291 291 290 291 291 290 290 290 290 290 290 291 290 291 291 291 292 292 293 293 293 293 293 293 295 295 296 296 296 296 295 295 296 296 296 296 296 296 297 297 298 298 298 298 298 299 299 299
288 290 297 295 293 295 294 296 298 298 299 293 286 291 294 297 295 288 282 285 284 280 282 288 285 288 289 285 297 295 292 291 291 291 291 292 292 291 290 290 290 290 290 290 290 290 289 289 289 290 290 290 290 291 291 291 292 293 293 292 292 292 292 293 294 295 295 295 295 295 294 294 295 295 296 296 296 296 296 297 297 297 297 297 298 298
295 286 294 292 295 295 295 296 294 297 298 294 292 296 289 285 284 288 284 276 277 277 280 284 287 287 289 289 294 292 292 290 290 291 291 290 290 290 290 290 290 290 290 289 289 289 289 289 289 289 289 290 290 291 291 291 291 292 292 292 292 292 292 293 293 294 294 295 295 295 294 294 294 294 294 295 295 295 295 295 296 296 296 297 297 297
295 285 288 294 295 296 295 295 287 291 294 295 295 291 294 288 285 284 284 284 284 278 279 279 285 282 292 292 295 293 292 290 290 290 289 289 290 290 290 290 289 289 289 289 289 289 289 289 289 289 289 289 290 290 291 291 291 291 291 291 292 292 292 292 292 292 292 293 293 293 294 294 294 293 293 293 293 293 294 294 294 294 295 295 296 296
289 295 282 291 293 296 288 293 289 292 288 288 287 285 288 286 288 287 286 283 281 279 279 278 277 284 292 296 296 291 292 291 291 290 290 290 290 290 290 290 290 290 289 289 289 289 289 289 289 289 290 290 290 290 290 290 290 290 290 290 291 290 290 291 292 292 292 292 292 292 291 292 292 292 292 292 292 292 292 293 293 293 294 294 294 295
289 289 284 288 289 289 291 297 296 295 296 290 289 286 288 286 283 281 279 289 284 283 278 278 277 285 293 296 293 292 292 293 293 292 290 290 290 290 290 290 289 289 289 289 289 289 289 289 289 289 289 290 289 289 289 289 289 289 289 289 289 290 290 289 290 291 291 291 291 291 291 291 291 291 291 291 291 290 290 291 291 292 292 292 293 293
295 291 288 285 287 289 293 296 299 298 298 296 294 290 293 291 289 285 278 282 286 285 286 284 281 282 292 293 293 292 293 292 292 292 291 290 290 289 289 289 289 289 288 288 289 289 288 288 288 288 288 288 288 288 288 288 288 288 288 288 288 288 289 289 290 290 290 290 290 290 290 290 290 290 290 290 290 289 290 290 290 291 291 291 292 292
294 288 285 287 291 293 295 298 299 298 297 293 293 294 292 288 289 287 286 286 283 284 282 282 279 284 291 294 293 293 292 291 292 291 290 289 289 288 288 288 288 288 288 289 289 288 289 288 288 288 287 288 288 287 287 288 288 288 288 288 288 287 288 288 289 290 289 289 289 289 289 288 289 288 288 288 289 288 289 289 289 290 290 290 291 291
286 287 287 282 282 284 287 290 291 293 293 291 289 291 293 293 292 291 288 286 281 283 284 281 275 282 292 293 293 292 291 289 289 288 289 288 287 287 287 287 287 287 288 288 288 288 288 288 288 288 288 288 288 288 288 288 288 287 287 287 287 287 288 288 289 288 289 288 288 288 288 287 288 287 288 287 288 288 289 288 288 289 288 289 289 289
288 287 285 278 276 274 274 276 280 283 286 289 289 290 291 291 290 286 282 284 280 283 284 281 280 287 292 292 293 294 293 290 288 287 288 289 288 287 287 287 287 287 287 286 287 287 287 288 288 288 288 288 287 287 287 287 288 287 287 287 287 287 287 287 288 288 288 288 287 287 287 287 287 287 287 287 288 288 288 288 288 288 288 288 288 288
286 288 287 284 281 279 281 285 290 289 287 284 285 286 287 289 290 288 285 281 277 280 279 280 281 282 284 287 288 290 289 289 287 286 286 286 286 287 287 287 287 287 287 286 286 287 287 287 287 287 287 287 287 287 287 287 287 287 287 287 287 288 287 288 288 287 287 287 287 286 286 286 286 286 286 286 286 287 287 287 287 288 287 288 287 287
286 284 285 286 285 285 287 286 288 289 284 285 285 285 287 286 287 284 281 279 284 279 274 283 284 282 283 286 287 288 288 287 285 284 284 285 286 287 287 287 288 287 287 287 287 287 287 287 287 287 287 287 287 287 287 288 287 287 287 286 287 287 287 288 287 287 287 286 286 286 286 286 286 286 286 286 286 286 286 286 286 286 287 287 287 287
284 280 284 285 283 286 286 286 288 287 286 286 285 285 284 286 285 282 283 285 285 279 276 283 284 282 284 287 288 289 288 284 284 286 286 286 286 286 286 285 286 287 287 286 285 286 286 286 287 287 287 287 287 286 286 287 287 287 287 287 287 287 286 287 286 286 286 286 285 286 286 286 287 286 286 286 285 285 285 285 285 285 285 286 287 287
285 281 284 283 281 281 283 284 286 284 284 284 284 284 285 284 284 284 284 285 284 282 284 284 284 284 286 287 289 288 287 287 287 287 287 286 285 285 285 285 285 286 286 287 286 286 286 286 286 287 287 287 287 286 286 286 286 286 286 286 286 286 286 286 285 285 285 285 285 286 286 286 286 285 285 285 285 284 284 285 285 285 285 285 285 286
286 280 284 278 279 278 281 283 283 282 282 279 281 282 282 282 282 283 283 283 284 283 283 283 282 282 287 289 287 287 287 286 286 285 285 285 284 284 283 283 283 284 286 287 287 286 286 286 286 287 286 287 287 287 287 287 287 287 286 286 286 286 286 286 285 284 284 284 285 285 285 285 285 285 284 284 284 284 284 284 285 284 284 285 285 285
285 278 283 280 277 276 280 280 280 280 279 277 277 278 279 279 278 280 280 283 282 280 282 281 279 279 285 286 287 286 285 284 282 283 283 283 283 283 282 283 283 284 285 286 286 287 286 285 285 286 286 286 287 287 287 287 287 286 286 286 286 286 286 285 284 284 284 284 284 284 284 285 284 284 284 284 283 283 283 283 283 284 284 284 284 284
283 281 278 278 275 274 279 280 277 276 275 273 275 278 280 281 282 282 283 284 283 283 278 276 277 284 284 286 283 283 282 282 282 282 282 283 283 283 282 282 283 284 284 285 286 286 286 286 285 286 286 286 287 287 287 287 287 286 286 286 286 286 285 284 284 284 284 284 284 284 284 284 284 283 283 283 283 283 283 282 282 282 282 282 283 284
282 280 278 280 273 274 277 277 275 272 267 269 281 283 283 280 280 278 278 280 281 282 280 284 282 284 284 282 281 280 280 280 281 282 284 283 282 282 283 283 283 284 284 285 286 287 287 286 286 287 287 287 288 288 288 288 287 287 287 287 286 285 285 284 284 284 283 283 283 283 283 284 283 283 283 283 283 283 282 282 281 282 282 282 283 283
280 279 278 279 275 273 276 275 271 265 267 277 282 283 283 282 281 280 280 281 282 283 284 283 284 282 283 283 281 281 281 282 283 283 283 284 284 284 283 283 283 284 284 284 285 286 286 286 285 286 286 287 287 288 289 288 288 288 287 287 286 285 285 284 284 283 283 283 283 283 283 283 283 283 282 282 282 281 281 281 281 281 281 282 281 282
279 278 278 276 277 276 273 271 264 265 276 275 280 281 283 282 280 279 277 280 281 282 282 281 283 284 284 282 282 282 282 282 283 283 284 285 286 285 284 284 284 284 284 284 285 285 286 286 285 285 285 287 287 287 288 288 289 288 287 287 286 285 285 284 284 283 283 283 283 283 283 283 282 282 282 281 281 280 280 280 280 280 280 281 281 282
282 280 278 274 278 270 272 271 270 276 274 276 277 279 280 278 279 278 273 278 281 281 283 282 283 283 283 281 281 281 281 282 280 281 285 285 286 286 285 285 285 285 285 285 286 286 287 287 286 286 287 287 287 287 287 288 288 287 286 285 285 284 284 284 283 283 283 282 282 282 282 282 282 281 281 281 280 279 279 278 279 279 280 279 280 280
283 277 279 274 273 276 270 269 270 269 266 272 280 281 284 283 283 282 279 274 282 282 284 283 281 282 279 279 279 280 281 277 275 278 283 284 285 285 285 286 286 285 285 284 285 285 286 286 286 287 287 286 286 287 288 287 285 284 283 283 283 283 282 282 282 282 282 282 282 282 282 282 281 280 280 280 279 278 278 279 279 279 279 279 278 279
280 281 279 276 273 274 271 268 267 266 268 277 276 281 283 283 283 281 276 270 277 273 280 279 278 279 279 279 279 280 277 273 274 278 283 284 284 285 284 285 285 285 285 285 285 284 285 285 285 285 285 285 284 285 285 283 282 281 280 280 280 280 280 280 281 281 281 281 282 282 281 281 280 280 279 279 278 278 278 278 278 278 279 278 279 279
275 277 276 273 272 272 271 268 267 272 270 275 277 280 282 280 283 277 266 267 276 275 278 279 278 279 279 280 279 278 276 273 275 279 283 283 284 284 284 284 284 284 284 285 285 285 284 284 283 282 282 282 282 282 282 281 280 279 278 278 278 278 278 279 279 280 280 281 281 281 280 280 279 279 278 277 277 278 277 278 278 277 277 277 278 277
273 273 276 270 272 272 272 269 272 272 278 279 279 281 283 284 279 268 264 272 276 278 280 281 279 280 280 279 280 276 279 280 281 282 283 284 283 284 285 285 285 284 284 284 283 283 282 281 280 280 279 280 280 280 280 279 278 277 277 276 276 276 277 278 278 278 279 279 279 279 278 278 278 277 277 277 277 277 277 277 277 276 276 276 276 276
270 272 273 275 271 270 271 269 269 272 278 281 282 283 283 278 268 268 276 279 280 280 282 282 280 281 281 280 280 280 281 282 283 283 283 283 283 283 284 284 284 284 284 284 283 281 280 279 278 278 278 278 278 278 277 277 276 275 274 274 274 275 276 276 276 277 277 277 277 277 276 276 276 276 275 276 276 275 275 276 276 275 275 275 275 274
272 270 268 270 272 273 271 268 267 263 275 281 280 279 282 273 274 280 281 282 282 281 281 281 282 282 281 280 281 281 281 281 282 282 282 283 283 283 283 283 282 281 281 280 279 279 278 276 276 276 276 276 276 276 275 275 273 273 273 272 273 274 274 274 274 274 274 274 274 273 273 273 273 273 274 274 274 273 273 274 274 274 274 273 273 273
278 271 271 272 275 268 268 266 266 273 278 281 279 274 278 280 283 283 282 280 283 282 281 281 281 282 282 281 280 281 281 281 281 282 282 282 282 282 282 282 281 280 278 278 278 277 276 275 274 273 273 273 274 274 273 272 271 271 271 271 273 272 272 272 271 271 270 270 270 270 270 270 271 271 272 272 272 272 272 272 272 272 273 272 272 272
277 273 275 271 276 273 270 273 278 280 280 281 282 281 282 283 284 284 283 282 281 282 283 281 281 282 282 282 281 280 279 280 280 281 280 280 281 280 279 279 278 277 276 276 275 275 274 272 271 271 271 271 271 271 271 271 270 269 269 270 270 269 269 268 267 267 266 265 265 265 266 266 267 267 268 269 269 269 270 270 271 270 271 271 271 271
280 280 280 277 275 279 280 280 281 281 281 282 283 283 282 283 284 284 283 282 283 283 283 281 282 281 281 281 279 279 279 280 280 280 279 279 278 278 278 277 276 276 275 274 274 273 271 270 269 269 268 269 269 269 270 269 268 266 267 267 267 266 265 264 263 263 262 262 263 263 264 264 264 265 265 266 267 267 268 268 269 269 269 270 270 270
279 280 277 274 276 274 269 279 278 279 281 281 282 283 284 284 283 284 283 283 283 283 282 282 281 280 280 279 278 278 278 279 278 277 277 277 276 276 275 274 274 274 273 271 271 270 269 268 267 266 266 265 267 267 267 266 266 265 265 264 264 263 263 262 261 261 260 260 261 261 261 261 262 262 263 264 265 265 266 267 267 267 268 268 268 268
274 282 276 276 275 273 273 277 279 281 281 282 282 281 281 282 283 284 284 283 282 280 280 279 278 277 278 277 277 276 276 276 275 275 274 274 274 274 273 273 272 271 271 270 269 268 267 266 265 264 264 264 264 264 264 263 263 263 263 262 262 262 261 260 260 259 259 259 259 260 260 260 262 262 262 262 263 264 264 265 266 266 266 267 267 267
278 280 272 276 273 276 278 279 279 280 280 281 282 282 283 283 283 283 283 280 280 278 277 276 276 276 276 275 275 274 273 273 274 273 272 272 272 271 271 271 270 269 269 267 267 266 265 264 263 263 263 262 262 262 262 261 261 262 261 261 261 261 259 259 259 259 258 259 259 259 260 260 260 260 260 261 261 262 263 263 263 264 265 267 267 267
278 274 277 276 272 272 273 275 279 274 274 279 281 282 283 283 283 281 279 278 277 277 276 275 275 274 273 273 273 272 270 271 271 271 269 270 269 269 269 269 268 267 266 266 265 264 263 263 262 261 260 260 261 261 260 260 261 261 261 261 260 260 259 258 258 258 258 258 258 258 259 259 259 259 259 259 259 259 260 264 266 266 264 264 268 271
276 277 277 274 272 272 278 279 281 280 279 280 281 282 280 280 280 279 278 278 276 275 274 273 273 273 272 272 272 270 269 269 269 269 267 267 268 268 267 266 265 265 264 264 262 262 262 261 261 260 259 260 260 260 260 259 260 260 260 260 260 259 258 258 258 257 257 258 258 258 258 258 258 258 259 259 259 259 259 259 261 266 268 268 268 269
Wind_Speed
7 9 9 10 13 13 13 14 17 18 17 18 16 13 15 17 17 15 17 14 11 8 13 15 16 18 16 16 18 18 18 18 21 19 16 15 15 15 10 8 7 5 6 5 6 6 7 8 8 7 6 6 5 4 3 3 2 3 4 4 6 5 6 6 7 7 7 8 8 8 10 10 9 9 9 9 10 10 10 11 11 10 10 11 12 12
3 10 11 13 15 14 15 12 10 12 12 14 14 15 16 14 16 14 17 14 15 12 11 12 17 17 16 16 18 18 17 22 16 13 14 17 16 10 7 5 3 6 5 5 7 9 9 8 7 7 6 7 8 8 7 6 5 3 3 4 4 4 5 7 7 6 7 7 7 7 7 7 7 7 8 9 8 9 8 9 9 8 8 10 10 11
7 12 11 14 14 15 15 8 10 9 13 14 13 13 14 12 15 17 18 13 6 2 11 12 17 16 19 22 22 20 20 16 12 12 15 15 12 5 2 1 5 6 7 8 10 11 11 12 12 10 9 10 10 10 11 10 8 5 3 2 3 3 4 6 7 6 7 7 7 7 6 6 6 6 6 7 7 7 8 7 7 7 6 8 8 9
10 9 16 15 14 14 14 13 11 14 13 12 12 11 12 10 11 11 5 2 4 5 10 13 18 13 18 19 18 17 14 14 12 13 13 13 9 4 2 4 4 6 8 11 12 11 11 12 12 12 13 12 11 12 12 12 11 8 7 6 4 3 3 4 5 6 6 5 5 5 6 4 5 4 4 5 5 6 6 7 6 6 6 7 7 8
13 8 2 11 14 13 14 13 13 11 13 11 13 11 12 14 13 13 12 13 15 15 13 11 13 12 7 5 5 3 4 7 9 10 15 9 3 2 2 4 6 9 10 10 11 11 12 12 14 14 13 12 12 12 12 11 11 8 10 9 6 4 3 3 3 6 5 4 4 4 3 1 1 3 3 3 5 7 6 7 8 8 9 9 9 9
15 15 5 6 8 11 12 12 14 14 12 10 12 13 16 15 16 14 14 13 8 9 4 10 11 4 3 3 3 6 7 5 8 13 14 5 6 5 7 9 10 11 12 11 11 12 12 12 12 13 14 14 12 12 11 11 11 11 10 11 9 6 4 2 2 3 4 5 5 5 5 5 5 6 6 8 7 6 8 8 7 8 9 10 10 10
7 2 5 9 11 10 10 12 15 11 11 10 7 3 7 8 10 11 12 7 6 5 1 5 5 11 4 11 10 12 10 9 11 14 5 5 4 7 10 10 11 11 11 11 12 12 13 13 13 14 14 13 13 12 11 10 11 12 11 11 10 7 6 4 3 1 3 4 4 6 6 5 6 6 6 6 6 7 6 6 7 7 8 9 10 10
8 9 3 1 7 9 8 10 12 12 10 10 4 5 5 9 10 9 6 6 10 9 13 8 8 10 13 7 8 4 7 11 14 5 9 11 14 13 12 14 14 11 10 10 12 14 14 14 15 15 14 14 13 12 12 12 12 14 13 12 11 8 7 6 4 1 2 2 3 4 5 5 6 6 7 7 6 5 5 5 5 6 6 8 9 10
4 6 6 6 7 7 10 11 3 4 8 2 4 5 4 4 7 6 7 8 8 9 9 6 9 6 9 3 3 5 7 10 2 9 11 14 14 14 14 14 13 13 14 14 13 14 14 14 14 13 13 13 13 13 14 14 13 12 12 12 12 11 10 9 7 4 1 1 2 3 3 4 4 5 6 6 6 5 4 6 5 6 6 6 8 10
2 1 5 7 5 8 9 6 3 3 8 3 0 1 2 3 4 6 6 8 8 7 13 6 9 5 13 6 6 6 6 2 9 8 12 14 17 14 12 12 12 12 12 12 14 13 13 13 13 12 11 13 12 12 14 13 12 12 12 13 13 13 10 9 10 8 5 3 2 3 3 4 4 4 5 5 6 6 5 6 6 6 6 6 7 8
3 3 4 3 8 7 4 4 3 3 3 2 1 5 6 6 7 7 6 6 5 10 11 9 15 8 7 4 7 4 3 4 9 8 12 13 15 15 14 12 11 11 11 11 12 13 12 10 10 9 11 13 15 14 14 13 12 12 13 13 14 14 11 11 11 10 8 5 3 3 3 4 5 6 6 6 6 6 6 6 6 6 6 6 6 7
8 5 3 5 8 1 0 1 3 1 2 1 4 5 7 8 6 4 3 3 4 10 6 6 11 12 5 4 3 6 2 3 6 9 11 12 14 13 12 11 12 12 11 12 12 12 11 10 9 10 14 16 16 15 15 13 13 13 13 14 14 14 13 11 10 9 8 6 4 4 4 5 5 6 6 6 7 7 8 8 8 6 5 6 6 7
7 12 10 5 2 7 5 6 3 4 5 4 5 4 5 6 5 7 4 4 6 8 3 2 2 6 14 10 10 2 7 8 11 10 12 13 12 12 13 12 11 10 11 11 11 10 10 10 11 15 16 16 16 14 15 14 12 12 13 15 15 15 14 12 10 9 8 7 6 6 6 6 5 6 6 7 7 7 7 7 7 7 7 6 6 7
8 4 6 7 2 7 8 6 4 4 7 6 5 3 4 8 7 11 8 7 10 2 2 3 3 8 9 10 12 12 1 13 14 14 14 14 12 11 10 9 9 10 10 9 7 6 8 10 12 14 15 15 13 14 12 11 11 11 11 13 13 13 13 12 12 11 10 9 9 9 8 7 6 6 6 6 6 6 6 6 7 7 7 7 7 7
12 9 6 8 3 9 11 11 4 6 5 8 6 6 6 8 6 10 7 12 9 10 2 4 2 3 3 5 10 9 14 14 13 13 13 13 12 10 8 9 11 10 9 6 7 9 11 13 14 12 11 9 8 9 9 11 12 11 11 12 12 12 12 11 10 8 9 7 8 8 8 7 6 6 6 6 6 7 7 7 7 7 7 7 8 7
9 12 2 4 4 5 9 6 2 1 4 3 1 1 3 9 7 13 9 10 7 8 8 4 6 4 4 6 3 7 14 13 12 12 12 11 9 9 9 9 8 7 6 6 7 10 12 11 10 9 8 8 9 11 11 12 10 10 9 9 9 9 10 10 10 10 9 10 11 13 13 11 9 7 7 6 6 7 7 8 7 8 8 8 8 7
5 10 6 2 1 3 2 2 3 3 5 2 3 5 5 5 4 7 7 5 7 9 14 7 11 13 8 13 16 10 14 12 9 10 10 10 9 9 9 7 7 6 6 7 9 9 10 9 9 8 10 10 11 11 12 12 11 10 9 10 11 11 10 10 10 11 13 14 15 15 14 13 12 10 10 8 9 9 7 7 7 7 8 8 7 7
10 12 4 5 8 3 4 4 3 2 3 5 3 2 4 1 4 3 8 7 10 14 11 7 14 12 9 9 8 12 11 8 9 10 11 10 10 11 8 8 8 8 8 9 9 8 8 8 9 9 9 10 10 10 11 12 11 10 9 11 10 10 12 12 13 14 14 15 14 14 14 14 12 12 11 10 10 9 8 7 7 7 7 7 7 7
7 7 3 4 5 3 2 2 3 5 3 5 3 5 3 4 6 6 2 4 8 11 9 10 15 15 13 12 5 9 6 8 9 9 9 9 9 8 8 8 8 8 7 8 8 7 7 7 7 7 8 8 8 8 8 9 10 11 11 12 12 14 14 14 12 12 11 11 9 9 11 12 12 12 11 10 10 10 9 9 8 8 8 7 8 7
4 4 5 2 4 3 0 2 6 5 2 1 1 2 2 1 5 6 3 1 2 10 9 4 10 10 6 8 14 2 9 9 8 7 6 6 5 5 4 5 5 6 5 5 5 5 5 6 5 6 6 7 7 7 7 7 8 10 10 10 10 10 10 10 11 10 10 10 9 10 9 10 9 10 10 10 10 9 10 9 10 10 9 9 8 7
1 1 7 2 2 5 4 5 6 8 5 3 2 2 1 0 1 2 3 3 5 5 7 5 8 6 7 8 6 8 7 9 8 7 5 4 4 4 4 3 3 4 4 4 4 4 5 5 5 5 5 5 6 6 7 7 7 8 8 9 10 12 14 15 14 12 11 10 10 11 11 10 10 11 10 11 11 10 10 10 9 9 9 9 8 7
1 2 6 4 9 9 11 9 12 12 6 7 8 8 10 5 3 6 11 6 5 9 8 9 13 5 4 6 6 9 7 8 7 6 5 5 3 2 1 2 1 2 2 2 3 3 4 5 6 5 5 6 6 7 8 7 7 8 10 10 10 11 12 12 12 12 12 10 9 11 10 9 8 8 9 10 9 10 9 9 9 9 9 9 8 8
3 3 6 9 10 14 15 14 14 11 9 13 7 8 8 8 7 9 13 7 6 9 8 12 14 10 1 3 7 7 6 6 6 5 5 4 4 3 3 2 1 1 1 1 1 2 2 4 5 5 6 6 6 6 7 7 8 8 9 10 10 10 11 10 10 10 10 10 10 11 10 9 8 8 8 9 8 10 10 10 10 9 9 9 9 8
4 3 7 13 13 14 17 15 8 6 9 11 12 11 9 13 12 13 13 8 10 10 9 10 10 2 2 3 4 5 5 5 4 5 5 4 4 3 3 3 2 1 1 0 1 1 2 2 3 4 5 5 5 6 6 6 6 7 7 7 7 9 9 9 8 8 9 9 9 9 9 9 9 10 10 10 7 8 8 9 9 9 10 9 9 9
3 3 5 6 7 5 7 8 4 3 1 6 7 6 6 8 11 10 4 0 6 7 14 13 14 8 3 2 4 0 3 4 5 3 4 4 4 4 4 3 1 0 1 2 3 4 4 4 5 5 5 5 6 6 6 6 6 6 6 6 6 6 6 7 6 7 7 7 9 9 9 10 9 9 10 10 9 10 8 7 7 8 9 10 10 10
2 4 4 5 7 10 9 9 8 1 4 5 7 7 8 6 8 6 9 8 12 1 10 12 11 8 5 3 6 8 7 3 3 5 4 3 4 4 4 4 2 2 2 2 4 5 6 6 5 6 6 6 7 7 7 6 6 5 5 5 6 5 6 6 5 6 6 5 6 7 8 9 9 9 9 9 9 10 9 8 7 7 6 7 9 9
1 1 6 9 11 11 11 11 3 2 4 5 3 4 9 11 8 7 7 11 10 7 9 8 11 14 18 21 20 18 11 2 6 4 4 4 4 3 4 4 4 4 4 3 2 3 3 4 5 5 6 5 6 6 6 6 7 6 6 6 6 5 6 6 6 7 6 6 6 5 5 6 7 8 8 8 9 8 8 9 9 9 8 7 7 8
1 6 11 14 14 14 16 16 16 15 16 14 14 15 15 15 10 12 11 16 3 9 16 5 13 9 12 15 13 13 11 2 2 3 4 4 5 4 4 3 5 4 4 3 4 5 5 4 4 4 5 5 5 6 6 6 6 7 6 7 6 6 5 5 6 6 6 6 6 5 6 5 5 5 6 7 8 8 9 9 9 9 9 8 8 8
3 9 11 14 14 14 14 15 14 14 13 14 15 15 17 17 16 17 15 16 16 14 18 14 18 18 15 17 17 18 4 3 2 2 2 1 0 0 2 3 4 4 4 4 4 4 4 5 4 5 5 5 6 6 7 6 7 7 7 7 7 6 7 7 7 7 7 7 7 7 6 6 5 5 6 6 7 8 9 9 9 10 10 9 9 7
3 8 7 2 5 5 10 11 11 13 12 13 13 15 15 18 21 22 23 21 20 20 20 20 22 25 20 23 24 8 5 2 2 2 1 2 3 4 5 5 6 6 6 6 6 5 6 5 6 6 6 6 6 6 6 6 6 7 7 8 7 7 7 7 7 8 8 8 8 8 8 8 7 7 7 7 8 8 8 8 8 9 10 10 10 10
3 5 4 0 6 7 7 11 9 8 9 10 11 13 15 19 21 18 18 20 20 20 23 23 24 23 18 11 5 6 3 3 3 3 4 4 4 5 6 7 7 7 8 8 7 6 6 7 7 7 7 7 7 7 7 7 7 6 7 8 7 7 7 6 7 7 8 8 8 8 8 8 8 8 8 9 8 9 9 9 9 9 9 9 10 10
3 3 4 2 7 6 6 8 8 4 6 9 11 17 20 20 19 14 15 12 14 18 19 21 18 15 5 7 3 4 4 4 5 5 5 4 5 6 8 8 9 8 8 9 8 8 7 7 8 8 8 8 8 8 7 7 7 7 8 8 7 7 6 7 7 8 8 8 8 8 8 7 7 8 8 8 8 8 9 9 9 9 9 9 10 9
2 3 3 4 9 6 7 6 3 4 10 12 13 19 19 18 17 18 17 16 18 18 17 14 15 4 5 3 4 3 5 5 5 6 6 6 6 7 8 10 9 10 10 10 10 9 9 9 8 9 9 8 8 7 7 7 7 8 8 8 8 6 6 7 7 8 8 8 8 8 8 7 5 5 6 6 6 7 8 9 9 10 10 10 10 10
4 5 8 6 7 4 10 7 3 5 15 16 6 4 3 11 11 14 14 15 16 14 10 5 2 3 1 3 3 2 4 4 8 7 8 7 8 8 9 9 10 11 12 11 11 11 10 8 7 7 8 9 9 9 8 8 8 9 8 8 7 7 7 7 8 8 8 8 8 8 7 7 5 6 6 6 6 6 8 9 10 10 9 9 9 9
7 7 10 7 10 12 8 5 8 14 15 2 3 3 4 4 4 10 13 14 13 11 8 6 8 2 4 3 3 3 4 7 8 11 10 11 10 10 10 11 10 11 11 13 12 12 11 10 9 8 8 8 8 8 8 8 8 8 8 7 8 7 8 8 8 8 8 8 8 8 6 6 6 6 7 7 7 7 8 9 9 9 9 9 9 10
10 11 9 9 9 9 9 9 9 9 2 1 7 10 8 4 6 9 12 12 14 13 11 9 7 5 4 3 4 7 9 9 9 9 10 10 10 9 10 10 10 11 12 12 13 14 13 12 11 12 11 10 9 8 8 8 8 8 8 7 8 8 8 8 8 9 8 8 8 8 8 7 7 8 7 7 8 9 10 9 9 10 9 8 10 10
14 9 8 11 6 10 8 13 17 8 15 14 13 10 7 6 4 6 8 8 4 3 6 6 6 6 3 6 8 10 10 10 10 9 7 7 8 7 8 10 11 11 11 11 12 13 13 13 13 13 11 11 11 11 10 9 8 9 8 8 8 9 10 10 10 10 9 9 9 9 8 8 8 8 8 8 10 11 11 11 11 10 6 8 10 10
11 12 9 10 7 10 12 11 12 11 12 6 2 3 5 3 5 5 9 8 10 9 6 7 5 2 5 9 8 9 8 8 10 9 9 10 8 9 12 11 10 9 10 10 11 11 12 12 11 12 11 13 13 13 10 9 9 8 9 10 10 10 10 11 12 12 12 12 10 11 8 8 8 9 10 10 10 11 11 11 9 9 8 9 11 11
7 9 8 11 9 7 11 12 12 10 7 5 4 5 4 6 4 6 6 10 1 3 4 5 3 5 4 4 6 6 5 6 9 10 8 10 13 13 13 12 11 10 10 11 11 12 10 9 9 11 11 12 12 11 9 9 9 8 9 10 11 11 12 12 12 13 13 13 12 12 9 9 9 10 10 11 12 11 12 12 11 10 9 9 10 11
3 6 6 9 12 11 10 11 13 5 6 0 3 1 3 1 2 3 10 5 4 2 1 1 2 4 6 4 6 5 6 9 9 10 11 13 14 14 12 13 12 11 11 12 9 9 8 9 10 10 11 11 11 10 10 9 8 7 10 11 11 11 12 12 13 12 13 14 14 10 9 9 10 12 12 13 13 12 12 11 11 12 11 10 9 10
3 3 8 12 10 12 15 12 8 8 5 4 4 5 4 3 2 5 12 3 3 2 3 2 4 5 7 6 7 6 7 9 11 12 14 14 14 14 11 10 11 10 10 8 7 8 7 7 8 9 11 10 10 10 10 9 8 10 10 11 12 12 12 13 13 13 13 12 11 10 11 11 12 14 14 13 13 13 12 11 11 11 11 12 10 10
2 3 5 8 12 11 11 13 12 10 6 6 8 9 7 1 6 9 2 4 5 5 7 8 8 9 8 9 8 8 9 11 12 12 13 14 13 13 12 11 9 8 6 7 8 8 7 8 8 11 10 9 9 9 7 8 9 11 11 11 12 13 13 13 13 13 11 12 12 12 12 14 14 14 14 14 13 13 14 13 12 12 12 11 11 13
4 3 6 9 7 7 7 9 9 10 0 5 4 6 6 5 5 6 4 2 3 2 4 6 6 7 7 10 11 12 12 12 12 12 13 14 13 12 11 9 7 7 8 9 9 8 7 9 10 10 11 10 10 9 7 8 11 11 10 12 14 13 13 13 13 13 12 14 14 14 15 16 16 16 14 14 14 15 16 15 14 14 13 14 15 15
3 8 8 9 5 10 9 9 5 4 6 5 6 4 3 7 8 9 6 7 6 7 7 7 8 9 9 10 10 10 11 12 12 12 12 11 10 9 8 8 7 7 7 8 8 8 6 9 9 11 11 11 10 8 7 9 11 12 12 13 12 12 11 11 12 13 14 14 15 16 17 17 18 17 15 16 15 15 16 17 16 14 13 14 13 14
7 11 7 11 4 9 8 9 7 5 4 3 8 8 10 13 12 7 5 6 9 9 8 8 9 9 8 7 8 9 10 10 12 11 10 9 8 9 9 9 8 8 8 9 9 7 5 8 12 12 13 11 8 9 8 7 9 10 12 12 13 13 12 12 13 14 15 18 18 18 17 17 17 18 17 17 16 17 18 18 16 15 14 14 13 14
6 10 4 9 11 13 14 16 13 13 14 11 8 8 13 16 13 10 11 11 10 10 8 8 6 6 7 4 5 7 8 9 9 8 8 8 9 9 9 8 8 8 8 8 8 7 7 9 9 11 13 15 10 10 8 7 7 13 14 14 12 12 12 14 15 15 17 17 16 17 17 18 18 18 17 18 16 17 17 17 16 16 15 15 16 15
12 12 8 6 4 8 11 8 11 15 16 14 15 16 14 13 12 11 10 10 10 3 1 1 3 5 4 3 5 8 9 7 8 8 8 8 9 9 8 9 9 8 9 7 8 8 8 8 10 12 13 16 13 10 10 10 9 10 12 12 13 13 14 14 15 16 15 16 16 17 16 17 14 14 15 15 14 14 14 14 14 15 16 16 16 16
11 12 11 10 10 12 12 13 16 14 15 17 16 14 15 14 15 13 10 2 2 3 1 2 1 2 2 3 5 6 7 6 7 8 8 8 8 8 8 9 9 9 8 8 9 8 7 8 11 13 14 14 13 12 11 10 10 10 11 12 12 12 12 14 14 15 15 17 15 14 14 14 18 18 14 14 13 14 14 13 13 15 16 15 14 14
5 1 5 4 8 13 16 17 18 17 19 20 19 17 14 13 12 11 2 4 2 3 3 2 2 1 1 4 4 5 5 7 6 7 8 7 7 7 8 9 10 10 10 10 9 7 8 10 12 13 13 15 13 12 12 12 11 10 11 14 13 11 14 15 17 16 17 16 14 14 13 13 13 13 14 14 14 14 14 15 15 16 17 16 13 14
9 10 9 11 14 13 13 13 12 10 10 12 13 13 11 4 1 2 4 3 4 3 3 2 2 3 2 2 3 3 4 6 6 6 6 7 8 9 9 9 10 11 10 9 9 10 11 11 11 13 14 13 12 12 13 13 11 11 12 11 11 12 13 16 17 17 16 14 14 13 13 13 12 13 14 15 15 16 16 20 24 21 18 19 24 32
13 15 12 12 11 12 13 14 13 14 16 14 16 2 5 1 3 4 5 5 4 3 2 1 3 3 2 2 1 2 3 5 6 6 6 7 8 8 9 10 11 11 11 11 12 12 10 10 12 13 14 14 11 11 11 13 13 12 13 15 12 13 16 15 16 16 14 14 13 14 15 14 14 13 13 14 15 15 16 16 15 22 29 29 30 30
Wind_Direction
170 210 201 208 228 236 247 238 241 256 270 281 286 277 274 278 280 281 275 284 297 305 273 280 286 290 290 286 282 281 277 270 269 277 287 282 279 275 284 289 296 316 337 341 321 353 5 12 16 12 13 14 18 27 7 342 316 269 246 232 227 204 198 199 198 202 199 200 206 213 217 221 219 218 219 225 220 218 219 213 206 193 184 181 179 185
199 228 226 230 243 255 262 282 303 286 277 279 279 279 278 276 281 276 283 294 288 279 280 284 286 286 290 286 277 269 269 268 273 289 280 274 268 283 300 312 337 332 339 9 35 36 37 23 23 31 36 32 37 32 30 27 360 331 294 261 247 218 199 204 204 202 204 209 212 211 219 223 227 223 218 226 224 224 222 220 212 204 194 185 182 183
213 229 234 236 247 255 261 272 272 277 276 271 268 273 280 278 281 281 278 275 294 13 277 285 288 290 284 271 267 264 262 273 284 265 265 271 283 320 335 335 339 348 21 36 47 43 41 44 41 37 34 35 34 32 31 18 11 7 336 296 266 240 208 209 209 205 208 211 217 222 229 225 231 228 228 231 233 226 229 226 219 212 202 194 190 186
244 236 232 240 247 254 260 255 259 264 258 258 259 258 262 280 282 294 291 139 208 223 292 297 293 283 269 267 265 270 265 262 263 264 265 257 268 286 305 342 351 31 32 41 43 36 41 42 38 32 29 26 27 26 20 16 14 14 7 355 326 282 234 223 210 214 218 220 221 222 238 248 241 239 232 236 235 232 227 225 217 213 209 202 199 194
245 274 80 230 238 244 253 256 259 257 256 245 249 258 271 267 270 283 300 306 304 290 282 302 282 280 246 247 224 134 261 239 244 251 252 253 215 234 176 109 60 53 47 46 40 36 39 40 39 36 29 25 29 24 17 13 14 10 6 2 351 328 295 242 223 202 217 210 202 201 203 216 260 257 256 226 226 221 215 214 212 210 202 203 202 198
259 263 151 239 231 245 249 259 252 250 265 270 258 256 260 271 285 291 300 311 305 290 88 342 324 311 121 15 286 174 186 246 227 237 257 111 135 149 111 87 80 70 57 50 44 44 37 38 41 36 32 29 25 24 16 16 17 15 13 8 1 353 341 322 240 207 209 209 207 201 207 219 225 237 231 234 237 226 218 220 220 215 205 202 204 204
290 55 175 230 244 247 248 256 256 254 262 266 275 299 282 287 290 292 296 310 289 295 103 65 299 291 239 275 259 255 277 278 252 249 276 76 100 83 78 71 67 68 63 53 50 39 36 31 33 34 30 25 23 16 11 17 20 20 18 12 8 6 1 13 334 222 215 217 222 226 233 243 254 259 256 251 247 245 237 225 218 214 210 208 207 209
197 221 181 289 239 244 246 246 252 237 254 262 38 331 304 289 290 298 301 273 271 284 275 240 217 269 295 282 262 237 253 247 255 280 78 81 81 76 65 54 51 54 51 55 44 40 36 32 30 30 27 25 20 9 12 17 16 17 17 16 15 11 4 12 344 313 232 243 233 240 241 245 254 261 275 285 286 268 253 242 218 209 211 208 210 213
187 175 202 200 207 227 231 240 6 220 228 310 45 17 354 323 307 302 280 278 285 305 295 177 207 258 263 315 139 172 215 247 256 92 92 86 74 64 67 61 62 58 53 49 46 40 35 31 28 27 29 27 24 19 15 14 12 12 13 18 21 18 13 4 353 340 280 276 304 273 256 252 256 266 273 278 274 273 253 240 224 217 216 209 211 214
104 88 194 201 205 232 240 256 354 184 248 91 51 68 262 262 224 256 264 278 286 290 273 181 192 253 286 294 147 187 252 244 114 99 91 90 88 77 65 62 62 59 52 48 47 41 39 31 26 23 22 27 28 24 22 19 15 13 12 18 21 19 14 7 360 353 354 357 307 278 281 285 285 286 284 275 275 272 257 243 227 219 218 216 211 213
269 152 39 249 223 248 67 64 11 5 359 112 244 287 265 230 239 226 247 267 276 256 263 215 190 216 292 19 155 191 250 102 109 88 81 75 72 71 69 67 59 57 51 42 39 37 34 35 30 19 29 31 30 27 22 18 17 15 16 16 20 17 11 8 4 1 359 353 335 312 322 315 301 296 287 282 277 273 270 264 247 229 226 220 217 210
216 173 180 231 241 133 295 176 95 102 49 278 277 292 302 277 215 247 243 207 254 275 311 157 188 196 246 161 83 53 98 18 80 75 65 68 77 83 81 65 50 42 40 40 37 28 22 19 19 23 30 30 29 25 22 18 15 14 16 15 18 17 13 9 4 3 360 353 351 349 348 331 317 307 297 289 284 281 279 275 270 260 245 233 224 214
221 221 214 180 163 213 188 253 189 139 162 217 243 250 279 297 292 275 178 232 216 266 92 45 183 235 234 251 286 63 86 67 56 63 88 92 82 75 71 69 63 57 47 40 33 25 17 15 14 21 25 26 25 23 19 18 14 12 13 15 15 14 10 7 3 3 2 4 3 8 4 354 337 317 303 294 290 288 285 283 278 271 264 251 233 219
283 73 187 192 106 193 195 208 195 214 177 198 209 220 266 290 282 275 280 277 277 106 99 65 9 262 274 277 241 233 47 75 79 77 77 80 80 77 74 74 73 66 62 57 48 39 29 26 27 27 26 24 19 16 14 13 16 15 15 14 14 12 10 9 5 3 0 2 2 7 11 356 344 331 321 311 302 300 295 293 289 284 275 269 259 246
295 270 208 168 225 150 195 216 278 315 166 198 209 207 245 257 265 280 278 275 274 291 90 217 301 228 330 10 80 75 77 76 78 81 86 88 86 83 78 73 67 62 56 54 50 40 34 30 29 28 25 25 21 15 16 17 17 17 15 11 11 9 10 12 10 6 6 2 12 18 16 1 348 337 328 321 319 313 308 302 297 291 285 278 277 272
247 262 33 96 14 166 189 204 52 42 295 202 246 292 260 238 236 254 272 281 299 302 282 203 202 325 292 90 137 79 82 77 76 81 81 79 83 88 75 62 63 62 59 50 46 43 41 38 31 26 21 18 18 19 21 21 18 16 13 10 14 13 12 14 13 14 10 15 18 19 14 6 355 343 333 324 323 320 318 313 306 299 293 289 288 285
247 265 102 146 117 231 210 83 191 154 255 107 139 215 238 20 277 274 267 266 282 277 258 263 268 257 254 254 220 143 84 79 76 74 72 73 80 85 75 71 64 62 52 45 41 38 34 32 27 23 21 17 16 14 13 12 11 10 10 9 10 12 15 17 16 16 18 18 20 17 12 3 358 353 346 337 330 324 320 312 305 299 296 295 291 287
275 282 141 174 217 81 3 347 326 235 301 110 218 245 39 301 31 258 267 268 254 254 264 255 267 273 275 299 89 102 89 69 70 62 59 56 52 55 54 47 42 38 36 37 38 35 31 27 22 20 19 19 14 10 7 5 3 4 5 6 10 11 13 14 18 22 22 20 18 15 11 7 3 356 348 343 336 330 324 317 308 303 298 295 293 290
2 291 227 22 46 87 93 246 206 193 322 256 302 10 278 237 239 209 213 232 237 243 259 232 257 263 264 256 161 131 109 93 72 66 64 52 46 45 43 42 36 31 30 26 28 26 21 23 21 14 15 14 15 12 10 3 3 5 4 2 4 5 8 11 14 19 24 25 21 13 11 9 5 1 354 348 343 336 331 327 320 311 303 297 292 287
46 273 283 50 45 57 171 223 251 174 193 96 297 308 56 327 266 244 212 332 277 268 256 224 224 257 242 263 269 284 118 112 105 91 76 73 66 57 40 40 27 29 24 20 16 16 8 8 10 8 7 6 5 9 7 5 6 8 5 3 5 4 7 11 18 18 19 18 18 14 13 10 8 4 357 353 352 347 342 334 327 321 316 309 307 297
276 243 267 135 189 307 249 201 229 254 199 183 189 224 47 90 38 50 325 197 211 257 241 283 255 243 250 281 314 120 116 115 124 123 118 92 78 70 62 35 33 24 23 8 7 360 355 355 357 359 0 356 357 2 7 7 9 9 5 6 6 9 10 12 11 10 8 6 7 10 9 5 4 360 358 358 3 357 349 341 333 330 324 316 305 300
267 193 254 302 290 253 257 253 266 263 225 201 195 198 206 202 222 241 249 168 212 220 237 250 256 236 244 36 88 109 113 110 118 117 125 128 112 122 103 65 39 47 15 15 354 346 344 348 351 354 355 360 1 5 6 7 7 9 14 11 10 12 13 9 4 1 358 358 358 2 360 359 0 0 354 356 359 358 351 347 340 334 327 320 314 313
262 214 246 247 241 261 272 271 266 277 266 263 253 260 222 236 249 252 263 244 242 225 248 251 270 260 63 77 98 116 108 120 115 112 121 130 146 138 135 139 129 138 3 307 317 331 339 349 347 342 350 358 3 3 4 6 10 9 10 12 9 12 10 6 0 357 354 353 354 356 356 354 353 355 354 356 356 355 351 349 343 340 334 327 322 315
91 250 251 256 261 265 269 275 282 213 243 256 248 250 255 249 238 248 260 287 279 283 269 261 247 262 9 33 75 82 95 108 120 133 148 151 149 139 131 141 143 147 194 102 248 337 353 329 337 336 346 347 349 354 356 4 6 8 10 12 5 3 1 1 357 354 352 352 351 353 354 353 351 355 354 354 352 353 351 346 340 339 338 332 327 324
303 242 272 306 301 293 271 253 187 52 33 266 283 283 279 272 263 269 308 301 265 218 259 264 263 269 108 123 3 115 158 148 145 133 157 159 160 166 164 159 140 9 353 4 2 358 354 350 348 350 346 350 354 352 353 354 357 356 1 2 359 356 349 349 344 341 342 345 348 349 353 351 352 351 350 351 345 345 344 344 341 338 336 336 331 324
295 287 309 278 269 272 271 266 276 318 28 357 331 328 317 305 286 295 266 268 261 161 235 248 267 270 3 11 271 254 248 168 131 145 149 153 166 163 182 185 199 209 282 333 338 344 345 342 336 338 347 347 351 349 346 346 341 340 341 345 347 346 337 336 341 328 329 328 332 340 347 346 347 348 345 343 341 341 341 337 334 334 332 331 325 322
233 248 229 242 255 261 268 282 326 192 255 266 230 279 271 281 279 265 279 278 265 289 286 280 283 283 290 293 287 284 299 279 175 153 161 163 167 185 189 210 215 229 222 232 242 271 272 285 307 323 328 333 331 332 331 328 328 328 330 328 331 334 329 329 329 327 325 327 325 325 332 334 338 340 339 341 339 336 336 337 333 330 329 326 321 322
231 262 250 254 252 259 266 270 277 281 280 273 270 270 275 267 260 264 255 259 300 313 273 225 263 276 276 279 286 296 295 297 128 163 164 184 176 177 198 208 245 239 230 216 234 238 257 271 283 297 310 320 320 317 320 321 320 325 325 328 328 330 331 326 327 320 322 323 323 323 326 323 321 324 331 330 333 334 335 336 335 332 327 324 324 323
262 263 268 270 272 273 281 290 297 294 288 291 284 279 276 278 278 265 256 262 274 259 271 290 287 284 282 281 287 287 332 124 168 126 119 87 359 278 280 288 286 279 269 269 273 279 270 273 276 289 294 299 304 307 315 319 320 322 324 321 326 328 329 332 328 325 325 325 325 328 329 326 324 322 331 327 329 331 332 331 329 330 329 325 320 318
241 256 261 2 303 313 295 290 289 286 291 289 282 278 280 278 270 267 271 276 271 271 275 277 274 273 280 279 279 296 84 78 59 70 17 333 323 330 316 309 306 295 284 275 272 273 278 278 280 274 274 274 277 287 293 300 305 314 317 314 314 320 319 326 324 320 324 324 324 324 326 326 327 330 332 331 330 328 326 323 322 322 323 322 322 322
252 261 103 360 292 275 270 275 276 280 286 272 274 276 272 266 267 273 280 272 275 275 270 269 270 271 270 288 73 82 68 66 33 350 360 335 334 328 327 321 315 305 293 287 276 277 283 283 278 278 276 278 280 277 277 274 279 283 289 293 300 304 311 313 312 313 314 316 316 318 317 319 321 326 328 328 327 326 326 324 322 320 318 316 319 318
288 259 320 326 294 269 267 272 296 317 295 274 276 268 258 256 265 261 254 255 259 264 268 274 274 275 306 75 48 94 70 37 10 357 334 340 332 328 318 312 308 304 296 288 281 276 275 274 275 273 273 275 276 273 268 263 261 264 266 272 275 282 295 299 298 304 303 306 311 310 310 306 311 313 313 319 320 324 324 323 321 319 319 320 318 315
232 264 279 287 282 244 255 286 17 4 311 285 246 241 251 256 254 257 258 260 256 268 271 266 270 343 79 72 58 3 76 348 349 332 336 323 328 327 322 313 310 307 305 299 291 283 278 277 272 269 266 265 262 261 259 260 257 254 258 260 263 265 265 269 277 282 287 290 296 301 300 302 302 302 302 301 305 309 312 315 316 316 316 316 314 313
244 245 267 269 266 283 282 295 63 306 271 256 293 49 292 280 287 282 277 272 272 266 282 326 344 72 134 112 92 46 10 359 334 322 312 311 306 308 303 303 304 308 306 301 292 285 280 277 270 265 261 259 258 257 258 251 250 253 257 258 256 256 254 262 266 268 272 275 274 279 285 289 287 287 289 291 296 300 302 305 304 305 307 305 307 305
247 252 263 268 269 273 284 297 277 250 246 323 33 309 302 293 289 265 270 274 279 281 280 270 268 186 164 128 95 11 355 334 332 311 304 295 292 290 293 296 302 306 308 305 300 292 289 289 285 281 282 281 278 273 263 256 252 257 259 259 263 263 263 259 262 264 268 275 278 280 282 278 276 280 285 287 289 290 291 292 294 296 297 296 296 298
248 254 263 260 257 272 260 244 245 243 121 188 285 292 282 248 246 260 269 261 264 268 266 275 281 268 186 103 13 1 335 323 315 294 286 281 275 273 290 298 306 313 312 313 310 306 301 298 296 295 294 295 293 285 273 266 267 266 265 272 280 284 280 276 273 272 274 278 281 280 277 277 277 274 278 283 286 286 288 288 286 291 293 290 293 292
239 254 253 268 241 248 238 238 243 298 301 288 281 274 270 261 295 274 297 301 52 289 300 265 271 267 185 15 357 344 334 321 311 305 296 307 319 319 310 302 308 314 318 316 315 313 312 309 303 298 298 303 306 307 304 304 300 296 300 304 303 299 294 290 286 283 281 278 278 279 279 278 275 272 272 276 279 280 284 286 285 282 276 278 281 283
239 235 240 246 248 241 252 259 266 263 263 273 92 182 47 70 34 10 325 298 280 287 281 267 254 314 47 341 342 332 327 312 304 304 316 320 333 333 325 309 302 307 318 318 315 315 315 317 330 344 347 333 323 320 324 339 350 345 327 315 310 306 300 297 292 291 292 288 282 277 274 274 277 277 276 275 273 277 280 279 279 277 276 278 282 281
234 242 243 238 255 249 246 249 248 251 253 100 237 53 72 66 15 350 308 289 54 15 5 74 36 9 356 325 309 311 309 292 289 297 311 330 325 320 314 310 304 311 314 317 317 317 331 345 347 332 323 319 317 325 347 349 337 328 317 309 303 297 294 292 293 293 293 291 288 285 283 284 281 277 277 276 274 273 273 272 272 271 276 273 274 274
197 215 202 231 237 236 245 244 249 253 263 132 159 92 97 58 50 359 293 298 71 285 297 55 39 308 294 293 294 289 284 289 292 301 320 313 309 306 304 306 307 307 312 313 344 17 353 343 338 328 323 322 320 324 325 328 321 314 311 306 303 298 294 294 295 298 298 295 290 286 287 290 289 284 282 281 281 278 273 275 273 269 270 268 268 275
176 226 206 224 229 237 236 250 265 262 269 270 259 302 117 133 66 286 253 285 165 189 193 199 230 261 266 268 263 274 269 280 294 301 303 302 300 296 298 301 300 309 315 345 17 355 341 333 323 316 315 313 317 324 327 326 320 313 311 305 299 294 296 299 301 301 298 295 295 297 297 295 291 290 288 285 285 285 281 276 272 273 272 272 269 265
247 194 250 231 235 236 242 253 252 266 260 274 254 239 161 168 253 252 326 118 172 194 207 204 238 254 266 271 277 278 291 295 294 295 295 297 297 299 299 302 311 321 341 348 348 345 329 323 318 312 313 322 331 331 331 328 317 310 309 303 296 300 306 308 307 305 303 299 297 298 298 297 295 293 290 289 288 286 282 279 275 272 272 270 267 267
235 203 218 234 241 242 240 253 261 264 63 190 129 86 198 224 245 281 312 185 163 251 289 270 250 261 277 290 288 291 293 295 296 297 298 296 295 296 304 318 330 331 327 330 329 335 339 323 316 316 320 328 331 329 327 330 314 309 307 300 303 313 315 315 314 311 307 303 300 300 298 296 294 293 292 288 287 285 282 282 279 274 272 270 268 267
257 264 256 252 231 255 241 233 222 248 266 159 170 229 232 231 257 274 289 292 295 300 289 292 287 296 302 293 294 291 293 297 296 295 296 295 294 305 313 317 317 322 323 322 324 328 339 319 321 319 317 321 324 324 326 325 312 306 304 301 315 317 319 319 317 312 307 304 302 303 299 298 297 293 291 290 291 288 284 281 279 277 273 270 269 268
190 229 228 259 242 261 259 262 278 310 328 182 189 248 264 268 273 281 284 274 285 287 287 279 287 297 303 300 288 287 289 286 289 294 294 297 302 303 305 307 317 322 322 321 326 338 347 336 322 319 311 313 324 320 320 317 307 309 305 310 318 315 321 322 318 311 303 299 298 296 294 293 291 290 290 290 291 289 285 281 278 276 271 269 262 264
219 245 222 249 256 263 271 276 281 280 270 262 226 227 253 264 268 271 269 268 266 274 283 284 294 302 299 296 278 275 271 281 288 291 294 298 299 299 301 306 315 319 319 328 327 350 348 328 319 314 311 311 322 317 316 321 326 311 305 312 315 317 317 307 302 298 298 299 297 297 300 299 296 292 290 289 287 283 281 281 282 279 275 271 269 265
247 246 241 228 255 267 261 250 259 261 261 264 268 263 258 257 260 264 267 265 277 289 94 252 273 283 283 287 266 271 278 286 287 287 292 296 298 302 310 309 309 318 325 326 335 351 334 331 317 313 313 306 314 321 316 317 311 306 310 312 309 305 304 302 301 298 297 300 302 301 301 299 295 294 294 290 288 281 278 277 276 274 274 271 270 269
250 233 240 226 237 236 258 265 260 256 264 265 264 266 263 262 261 258 265 267 106 100 178 165 139 231 226 252 264 276 280 291 291 290 295 297 303 308 309 310 314 319 322 331 331 336 325 318 311 307 307 304 312 317 314 313 314 311 306 300 302 306 304 299 298 297 297 298 298 295 296 294 294 295 294 294 293 292 289 286 283 281 275 274 275 276
278 112 230 165 246 255 255 256 264 269 266 266 265 262 258 255 259 269 205 125 165 156 148 156 174 278 309 285 308 292 291 289 297 299 302 305 303 304 308 313 317 319 323 325 323 331 319 313 305 302 304 304 311 311 311 307 303 302 302 305 305 305 302 298 297 295 294 295 293 291 292 291 292 292 294 294 294 288 288 289 289 284 283 278 278 275
247 233 243 265 262 257 253 254 248 262 265 265 260 265 257 246 176 157 129 143 162 182 167 207 215 180 222 286 299 294 287 295 308 315 307 304 302 308 313 317 319 316 314 316 316 313 305 301 302 304 302 299 303 303 302 299 300 300 302 301 301 300 300 300 298 295 294 294 292 292 293 293 293 293 291 289 288 288 282 274 275 277 278 281 278 277
238 245 244 249 240 255 257 255 250 253 266 274 288 334 106 143 179 185 200 193 152 128 104 221 279 268 234 234 218 283 287 292 304 321 309 303 306 313 316 317 314 312 311 315 310 304 301 304 304 299 297 301 304 299 297 295 295 296 300 304 300 300 296 298 297 294 294 295 293 293 295 293 292 289 286 284 283 282 283 287 279 273 276 277 280 279